Tracking 35274 objects as of 11-Sep-2026
HD Live streaming from Space Station
objects crossing your sky now

NOAA 17 DEB


NOAA 17 DEB is no longer on orbit


NORAD ID: 48739
Int'l Code: 2002-032BZ
Launch date: June 24, 2002
Source: United States (US)
Launch site: AIR FORCE WESTERN TEST RANGE (AFWTR)
Decay date: 2025-03-29

Note: This is SATELLITE DEBRIS
Your satellite tracking list
Your tracking list is empty




NASA's NSSDC Master Catalog

Two Line Element Set (TLE):
1 48739U 02032BY  25073.56478475  .01129062  00000-0  17538-1 0  9997
2 48739  98.7599 118.9735 0013687 230.4194 129.5846 15.50971957211190
Source of the keplerian elements: AFSPC